GONETS D1 4

Satellite information

Favourite Embed

Satellite Type and Status

PAYLOADIN ORBIT

Key statistics

Satellite GONETS D1 4 at a glance.

Uptime

10482

Days in orbit

Revolutions

≈ 12.6

Per day

Orbit

LEO

Low Earth Orbit

Inclination

82.6

Latest

Satellite identification and parameters

Extended collection of information and parameters for GONETS D1 4.

Object identification

Identified? True

Debris? False

Object name: GONETS D1 4

International designator: 1997-006D

Object number (NORAD): 24728

Object ID (CCSDS): 24728

Country: COMMONWEALTH OF INDEPENDENT STATES (CIS)

Current information (Y/N): Y

RCS size: MEDIUM

Orbital parameters

Period: 113.932 minutes

Inclination: 82.6093 deg

SMA: 7784.96 km

Apoapsis: 1412.571 km

Periapsis: 1401.08 km

RAAN: 25.0421 deg

Eccentricy: 0.00073799

Argument of periapsis: 358.5866 deg

Mean anomaly: 1.5204 deg

Mean motion: 12.63915835 rev/day

Mean motion (dot): 0.00000032 rev/day2

B* drag term: 0.00011867832 1/REarth

Two-line elements (TLE)

Creation date: Oct. 27, 2025, 2:46 a.m.

Reference frame: TEME

Reference center: EARTH

Epoch: Oct. 26, 2025, 10:47 p.m. UTC

TLE line 0: 0 GONETS D1 4

TLE line 1: 1 24728U 97006D 25299.94937023 .00000032 00000-0 11868-3 0 9991

TLE line 2: 2 24728 82.6093 25.0421 0007380 358.5866 1.5204 12.63915835323740

Live tracking on map

Real-time ground track for satellite GONETS D1 4.

In-orbit conjunctions

There are no conjunctions computed for GONETS D1 4, at the moment. Check back to stay up to date, as we update our databases every day.

Go to all conjunctions

Associated space launch

Gonets- satellite were the civilian derivate of the military Strela-3 satellite system. The Gonets system was offered to support international health organizations to meet their global communications needs for the transfer of medical data and records to remote sites. Strela-3 was second generation of strategic store-dump military communications satellite. Development of this generation to replace the first generation Strela-1M and Strela-2M satellites began in 1973.

GONETS D1 4 was lifted into orbit during the mission ‘Tsiklon-3 | Strela-3 116 to 118 & Gonets 4 to 6’, on board a Tsiklon-3 space rocket.

The launch took place on Feb. 14, 1997, 3:47 a.m. from 32/1.

For more information about the launch, click the button.

Launch to space Tsiklon-3 | Strela-3 116 to 118 & Gonets 4 to 6
Tsiklon-3 | Strela-3 116 to 118 & Gonets 4 to 6

Agency: N/A

Status: Launch Successful

Launch date: Feb. 14, 1997, 3:47 a.m. UTC

Rocket: Tsiklon-3

Launch pad: 32/1

Location: Plesetsk Cosmodrome, Russian Federation

...

Latest news about this satellite

There are no fresh news available about this satellite. Check back as we update our databases every day.


Newsletter sign-up

Weekly statistics, charts and insights to help you stay on top of the space industry.